COSMOS 2126

Satellite information

Favourite Embed

Satellite Type and Status

PAYLOADIN ORBIT

Key statistics

Satellite COSMOS 2126 at a glance.

Uptime

12678

Days in orbit

Revolutions

≈ 12.5

Per day

Orbit

LEO

Low Earth Orbit

Inclination

74.0

Latest

Satellite identification and parameters

Extended collection of information and parameters for COSMOS 2126.

Object identification

Identified? True

Debris? False

Object name: COSMOS 2126

International designator: 1991-009B

Object number (NORAD): 21101

Object ID (CCSDS): 21101

Country: COMMONWEALTH OF INDEPENDENT STATES (CIS)

Current information (Y/N): Y

RCS size: MEDIUM

Orbital parameters

Period: 115.564 minutes

Inclination: 74.0336 deg

SMA: 7859.141 km

Apoapsis: 1495.622 km

Periapsis: 1466.39 km

RAAN: 30.5021 deg

Eccentricy: 0.00185976

Argument of periapsis: 47.4906 deg

Mean anomaly: 312.771 deg

Mean motion: 12.46063356 rev/day

Mean motion (dot): 0.00000003 rev/day2

B* drag term: 0.0001297147 1/REarth

Two-line elements (TLE)

Creation date: Oct. 28, 2025, 7:11 p.m.

Reference frame: TEME

Reference center: EARTH

Epoch: Oct. 28, 2025, 2:14 p.m. UTC

TLE line 0: 0 COSMOS 2126

TLE line 1: 1 21101U 91009B 25301.59306854 .00000003 00000-0 12971-3 0 9991

TLE line 2: 2 21101 74.0336 30.5021 0018598 47.4906 312.7710 12.46063356578863

Live tracking on map

Real-time ground track for satellite COSMOS 2126.

In-orbit conjunctions

There are no conjunctions computed for COSMOS 2126, at the moment. Check back to stay up to date, as we update our databases every day.

Go to all conjunctions

Associated space launch

Military communications satellites

COSMOS 2126 was lifted into orbit during the mission ‘Kosmos-3M | Strela-1M 353-360’, on board a Kosmos-3M space rocket.

The launch took place on Feb. 12, 1991, 2:44 a.m. from 133/3 (133L).

For more information about the launch, click the button.

Launch to space Kosmos-3M | Strela-1M 353-360
Kosmos-3M | Strela-1M 353-360

Agency: N/A

Status: Launch Successful

Launch date: Feb. 12, 1991, 2:44 a.m. UTC

Rocket: Kosmos-3M

Launch pad: 133/3 (133L)

Location: Plesetsk Cosmodrome, Russian Federation

...

Latest news about this satellite

There are no fresh news available about this satellite. Check back as we update our databases every day.


Newsletter sign-up

Weekly statistics, charts and insights to help you stay on top of the space industry.